Stations météo

réclame
Mon MeteoGroup
Cluanie Inn No 3, Grande-Bretagne (99117): Température de l'air & dewpoint: 13.10.2017 04:00:00 - 19.10.2017 04:00:00 (BST)Cluanie Inn No 3, Grande-Bretagne (99117): Quantités de précipitations: 13.10.2017 04:00:00 - 19.10.2017 04:00:00 (BST)
Date & Time tt [°C] td [°C] rr [mm]
19.10.2017 04:00:00 10,2 6,8 0,0
19.10.2017 03:00:00 9,7 6,3 0,0
19.10.2017 02:00:00 9,6 5,7 0,0
19.10.2017 01:00:00 8,8 5,3 0,0
19.10.2017 00:00:00 9,6 5,1 0,0
18.10.2017 23:00:00 9,2 5,5 0,0
18.10.2017 22:00:00 9,0 5,5 0,0
18.10.2017 21:00:00 9,0 5,4 0,0
18.10.2017 20:00:00 8,9 5,5 0,0
18.10.2017 19:00:00 9,3 5,1 0,0
18.10.2017 18:00:00 9,5 5,2 0,0
18.10.2017 17:00:00 9,6 5,4 0,0
18.10.2017 16:00:00 9,8 5,2 0,0
18.10.2017 15:00:00 9,9 5,5 0,0
18.10.2017 14:00:00 9,9 5,4 0,0
18.10.2017 13:00:00 9,2 6,1 0,0
18.10.2017 12:00:00 8,5 5,8 0,0
18.10.2017 11:00:00 8,0 5,0 0,0
18.10.2017 10:00:00 7,7 4,8 0,0
18.10.2017 09:00:00 7,2 5,0 0,0
18.10.2017 08:00:00 6,7 5,2 0,0
18.10.2017 07:00:00 7,2 4,9 0,0
18.10.2017 06:00:00 7,3 5,1 0,0
18.10.2017 05:00:00 7,5 5,1 0,0
18.10.2017 04:00:00 7,4 5,0 0,0
18.10.2017 03:00:00 7,3 5,2 0,0
18.10.2017 02:00:00 7,3 4,8 0,0
18.10.2017 01:00:00 7,6 4,5 0,0
18.10.2017 00:00:00 7,9 4,4 0,0
17.10.2017 23:00:00 8,5 4,1 0,0
17.10.2017 22:00:00 8,8 4,8 0,0
17.10.2017 21:00:00 8,4 6,5 0,0
17.10.2017 20:00:00 9,4 6,0 0,0
17.10.2017 19:00:00 9,5 6,0 0,0
17.10.2017 18:00:00 9,4 8,6 0,0
17.10.2017 17:00:00 9,5 8,7 0,4
17.10.2017 16:00:00 10,7 8,6 0,0
17.10.2017 15:00:00 10,4 8,7 0,0
17.10.2017 14:00:00 10,6 8,5 0,0
17.10.2017 13:00:00 10,4 9,1 0,0
17.10.2017 12:00:00 10,8 9,5 0,4
17.10.2017 11:00:00 10,7 10,0 0,6
17.10.2017 10:00:00 11,2 10,1 0,8
17.10.2017 09:00:00 11,2 9,9 0,6
17.10.2017 08:00:00 11,6 9,9 1,2
17.10.2017 07:00:00 11,5 9,9 2,8
17.10.2017 06:00:00 11,5 9,9 3,0
17.10.2017 05:00:00 11,0 10,1 3,2
17.10.2017 04:00:00 11,3 10,6 6,4
17.10.2017 03:00:00 11,2 10,3 3,2
17.10.2017 02:00:00 10,9 9,9 4,4
17.10.2017 01:00:00 10,9 9,5 5,8
17.10.2017 00:00:00 10,9 9,8 4,8
16.10.2017 23:00:00 10,8 9,8 4,6
16.10.2017 22:00:00 - - 0,4
16.10.2017 21:00:00 - - 1,8
16.10.2017 20:00:00 - - 0,2
16.10.2017 19:00:00 - - 0,8
16.10.2017 18:00:00 - - 1,0
16.10.2017 17:00:00 - - 0,2
16.10.2017 16:00:00 - - 1,0
16.10.2017 15:00:00 - - 0,0
16.10.2017 14:00:00 - - 0,0
16.10.2017 13:00:00 - - 0,2
16.10.2017 12:00:00 - - 0,2
16.10.2017 11:00:00 - - 2,4
16.10.2017 10:00:00 - - 2,4
16.10.2017 09:00:00 - - 0,2
16.10.2017 08:00:00 - - 0,4
16.10.2017 07:00:00 - - 1,0
16.10.2017 06:00:00 - - 0,0
16.10.2017 05:00:00 - - 0,0
16.10.2017 04:00:00 - - 0,0
16.10.2017 03:00:00 - - 0,0
16.10.2017 02:00:00 - - 0,0
16.10.2017 01:00:00 - - 0,0
16.10.2017 00:00:00 - - 0,0
15.10.2017 23:00:00 - - -
15.10.2017 22:00:00 - - -
15.10.2017 21:00:00 - - -
15.10.2017 20:00:00 - - -
15.10.2017 19:00:00 - - -
15.10.2017 18:00:00 - - -
15.10.2017 17:00:00 - - -
15.10.2017 16:00:00 - - -
15.10.2017 15:00:00 - - -
15.10.2017 14:00:00 - - -
15.10.2017 13:00:00 - - -
15.10.2017 12:00:00 - - -
15.10.2017 11:00:00 - - -
15.10.2017 10:00:00 - - -
15.10.2017 09:00:00 - - -
15.10.2017 08:00:00 - - -
15.10.2017 07:00:00 - - -
15.10.2017 06:00:00 - - -
15.10.2017 05:00:00 - - -
15.10.2017 04:00:00 - - -
15.10.2017 03:00:00 - - -
15.10.2017 02:00:00 - - -
15.10.2017 01:00:00 - - -
15.10.2017 00:00:00 - - -
14.10.2017 23:00:00 - - -
14.10.2017 22:00:00 - - -
14.10.2017 21:00:00 - - -
14.10.2017 20:00:00 - - -
14.10.2017 19:00:00 - - -
14.10.2017 18:00:00 - - -
14.10.2017 17:00:00 - - -
14.10.2017 16:00:00 - - -
14.10.2017 15:00:00 - - -
14.10.2017 14:00:00 - - -
14.10.2017 13:00:00 - - -
14.10.2017 12:00:00 - - -
14.10.2017 11:00:00 - - -
14.10.2017 10:00:00 - - -
14.10.2017 09:00:00 - - -
14.10.2017 08:00:00 - - -
14.10.2017 07:00:00 - - -
14.10.2017 06:00:00 - - -
14.10.2017 05:00:00 - - -
14.10.2017 04:00:00 - - -
14.10.2017 03:00:00 - - -
14.10.2017 02:00:00 - - -
14.10.2017 01:00:00 - - -
14.10.2017 00:00:00 - - -
13.10.2017 23:00:00 - - -
13.10.2017 22:00:00 - - -
13.10.2017 21:00:00 - - -
13.10.2017 20:00:00 - - -
13.10.2017 19:00:00 - - -
13.10.2017 18:00:00 - - -
13.10.2017 17:00:00 - - -
13.10.2017 16:00:00 - - -
13.10.2017 15:00:00 - - -
13.10.2017 14:00:00 - - -
13.10.2017 13:00:00 - - -
13.10.2017 12:00:00 - - -
13.10.2017 11:00:00 - - -
13.10.2017 10:00:00 - - -
13.10.2017 09:00:00 - - -
13.10.2017 08:00:00 - - -
13.10.2017 07:00:00 - - -
13.10.2017 06:00:00 - - -
13.10.2017 05:00:00 - - -
13.10.2017 04:00:00 - - -

tt = Température de l'air
td = dewpoint
rr = Quantités de précipitations

stations d'obs. à proximité